Location: Kuffner-Sternwarte
(48.2130°N, 16.2960°E)
Time: 18:51:53
(UTC+02:00)

COROT - Pass Details

Date: 20 May 2017
Orbit: 600 x 890 km, 90.0° (Epoch: 24 September)

Event Time Altitude Azimuth Distance (km) Brightness Sun altitude
Rises 21:47:05 0° 2° (N) 3,257 10.0 -10.2°
Reaches altitude 10° 21:49:31 10° 4° (N) 2,279 9.1 -10.5°
Maximum altitude 21:54:34 80° 92° (E) 719 5.8 -11.0°
Drops below altitude 10° 21:59:10 10° 179° (S) 2,081 7.8 -11.5°
Enters shadow 21:59:26 - 179° (S) 2,188 7.9 -11.6°
